{"data":{"norad_id":59788,"intl_designator":"2024-093G","name":"STARLINK-31888","alt_names":[],"object_type":"PAYLOAD","status":"ACTIVE","operator":null,"country":"US","launch_date":"2024-05-18","launch_site_code":"AFETR","launch_vehicle":null,"mission":null,"orbit_class":"UNKNOWN","rcs_meters":null,"size_class":null,"mass_kg":null,"dimensions":null,"purposes":["comms"],"wikipedia_slug":null,"has_3d_model":false,"image_url":null,"decayed_at":null,"tle_current":{"epoch":"2026-09-21T03:57:02.871648Z","epoch_age_seconds":117153,"freshness":"FRESH","line1":"1 59788U 24093G   26264.16461657 -.00000357  00000+0 -34521-5 0  9997","line2":"2 59788  43.0010 184.7135 0000767 282.2902  77.7864 15.27574174132593","mean_motion":15.27574174,"eccentricity":7.67e-5,"inclination_deg":43.001,"raan_deg":184.7135,"arg_perigee_deg":282.2902,"mean_anomaly_deg":77.7864,"bstar":-3.4521e-6,"rev_number":13259,"period_min":94.26710823667,"perigee_km":482.54028692338,"apogee_km":483.5927955466,"semimajor_km":6861.203541235,"source":"CELESTRAK","updated_at":"2026-09-22T09:00:49.072623Z"}}}